RH
5 5 5 6 5 7 9 8 7 7 6 6 6 6 5 5 6 6 8 10 21 24 18 20 18 20 27 29 27 26 29 32 37 41 42 49 50 46 48 50 50 48 50 53 50 47 47 46 46 44 44 42 40 39 37 38 38 38 36 35 36 37 40 39 36 34 34 33 32 33 33 35 37 35 37 41 43 46 48 47 48 49 49 50 49 46 46 48 47 41 32 22 18 17 19 20 17
5 5 6 6 6 8 10 7 7 8 7 7 6 6 6 5 4 7 9 9 19 25 22 22 21 24 27 28 29 27 30 35 39 42 47 50 49 49 49 49 49 49 51 53 51 49 49 50 48 45 45 44 41 39 37 38 39 38 37 37 38 40 41 40 37 37 36 35 36 36 36 37 39 35 37 44 46 44 44 43 45 47 45 44 45 43 39 40 44 43 33 25 19 18 23 24 19
6 6 8 8 8 9 9 7 7 7 7 7 6 8 7 6 8 12 12 9 17 24 26 26 26 28 27 30 31 31 34 36 39 44 48 47 46 47 47 48 48 48 51 54 52 51 54 53 50 48 47 45 42 39 37 38 39 38 38 38 41 42 42 41 39 37 36 35 35 36 38 38 38 36 36 42 48 49 46 46 47 44 39 37 40 40 37 33 37 40 35 27 21 23 27 27 23
7 8 10 11 9 8 9 9 8 7 8 6 7 13 12 12 15 14 12 12 16 22 27 29 30 29 31 37 36 36 38 38 42 46 46 44 45 45 46 48 48 48 51 53 53 54 57 56 52 50 49 46 43 41 39 40 40 40 40 41 43 44 43 43 41 38 37 36 36 38 41 42 42 41 38 37 44 52 54 54 54 51 42 37 37 37 38 33 32 36 36 31 25 26 27 28 27
9 10 10 11 11 10 10 11 9 7 8 6 8 19 20 19 17 11 12 15 15 20 26 29 34 33 33 38 37 40 42 44 45 43 42 43 45 45 46 48 48 49 50 52 55 57 58 57 55 54 53 49 45 44 43 42 42 43 43 43 44 44 44 44 43 42 40 39 39 40 42 43 42 41 41 39 41 46 53 58 59 60 53 47 44 40 40 35 31 35 39 34 29 27 27 27 27
11 12 11 11 12 10 10 10 9 8 8 6 9 19 23 20 16 13 14 15 15 18 25 29 35 35 35 36 37 42 44 45 43 40 42 44 47 48 48 48 49 50 48 49 54 57 56 56 56 55 55 53 49 45 45 44 45 46 45 45 44 46 45 45 44 43 43 43 42 42 42 42 40 41 42 44 43 43 48 54 57 60 61 59 58 53 47 40 32 34 39 34 29 26 26 26 26
12 12 11 11 11 10 11 10 9 9 9 8 10 18 21 19 16 18 18 16 17 21 25 30 34 37 40 38 40 45 44 44 41 41 46 48 51 51 50 49 50 50 45 45 50 54 55 56 56 55 53 54 53 48 46 46 47 47 48 47 47 48 47 47 46 43 44 44 46 45 44 43 41 43 44 44 46 44 46 51 55 58 61 60 60 59 54 48 36 31 35 32 30 26 24 24 24
12 12 11 11 11 10 11 11 10 10 10 8 10 14 16 15 15 19 22 21 22 25 29 31 33 38 43 40 41 46 45 45 43 45 49 51 53 52 51 51 51 49 44 44 47 52 53 54 55 54 54 53 53 51 48 46 47 49 50 49 49 50 49 48 46 43 43 43 44 45 44 44 43 44 44 44 45 46 46 50 56 59 63 60 57 57 54 53 46 37 33 31 32 27 22 22 21
12 12 11 10 12 12 10 10 11 10 10 9 10 12 12 13 13 16 22 24 25 28 32 33 33 38 42 39 41 46 46 47 46 46 49 50 51 51 52 51 51 48 45 45 47 50 48 50 54 54 55 52 51 51 47 45 46 49 50 49 49 50 48 47 45 43 43 43 42 42 41 42 43 43 44 45 45 46 48 52 56 61 66 65 58 54 50 52 55 50 40 33 31 24 19 18 18
11 12 12 11 12 11 10 10 11 10 9 9 11 12 12 13 14 15 18 21 24 30 35 34 32 36 38 37 43 49 49 48 46 45 47 48 49 50 51 51 50 47 48 48 48 49 45 47 52 52 55 53 50 49 47 45 45 49 51 50 50 51 48 47 45 42 42 43 42 41 38 39 41 43 46 47 47 47 49 53 53 57 62 64 61 55 51 51 56 58 48 36 29 23 17 15 16
12 11 11 11 11 11 10 11 11 10 10 9 10 11 13 14 13 14 16 18 21 29 35 33 33 35 36 36 44 50 48 46 44 45 45 46 48 49 51 51 48 48 51 51 48 48 45 45 49 51 53 53 51 49 48 48 48 49 50 50 50 50 48 46 45 42 40 41 41 39 37 37 39 43 46 46 49 50 50 53 54 56 56 59 60 56 52 51 52 56 52 40 30 25 19 16 17
14 13 10 11 11 11 11 11 11 10 10 9 10 10 11 13 14 14 15 17 20 27 33 35 36 37 38 38 42 46 45 43 42 44 45 45 47 48 49 49 48 49 50 50 49 47 44 45 48 50 51 52 51 49 49 52 54 52 50 50 49 51 50 47 44 41 38 36 35 36 36 36 38 42 45 45 47 49 52 53 55 60 60 59 60 56 52 49 48 50 51 45 34 27 22 17 16
14 14 12 11 11 12 12 11 10 10 10 10 10 10 9 10 13 13 13 15 18 24 31 35 36 39 44 42 43 45 42 41 42 45 46 46 47 47 47 47 49 51 49 50 52 49 45 47 48 50 49 48 48 48 50 54 57 55 54 53 52 54 53 48 45 41 39 35 32 34 36 36 38 41 44 46 46 48 53 54 55 62 64 61 60 59 56 51 46 46 49 46 37 30 26 20 17
13 14 13 12 12 12 11 11 11 10 11 11 11 10 9 9 11 13 14 13 15 22 30 35 36 41 45 43 43 45 42 41 42 45 46 47 48 47 46 47 48 50 51 52 55 52 49 48 48 49 45 43 44 45 52 56 58 57 56 56 55 53 50 49 47 44 43 40 36 34 36 37 40 43 45 47 47 48 50 51 53 60 66 63 61 62 61 55 49 49 49 43 36 31 28 24 20
14 14 14 14 13 13 12 12 11 11 13 13 12 10 9 10 11 12 13 13 14 20 30 37 38 39 42 42 42 44 44 42 42 44 45 45 45 45 44 45 46 47 50 51 53 51 48 47 45 46 40 38 41 42 48 53 56 57 57 61 59 55 52 51 50 45 44 47 44 37 37 39 43 46 46 47 47 48 49 52 53 59 67 67 66 64 61 58 51 50 51 43 35 32 27 23 21
13 13 15 15 13 13 13 13 12 12 15 13 12 12 11 11 12 12 13 14 16 20 26 34 39 39 40 43 44 44 46 44 45 46 46 46 44 44 45 45 44 45 47 47 49 48 45 43 40 42 38 37 38 39 43 46 51 53 54 59 57 56 54 50 47 45 46 51 49 43 42 41 46 49 48 49 48 48 51 52 53 58 64 66 67 65 61 58 53 50 52 47 37 33 29 24 22
13 14 16 15 14 14 13 13 13 14 16 13 13 13 12 13 13 13 14 14 17 19 22 32 38 40 42 43 43 45 47 47 49 50 48 48 47 45 44 44 43 42 43 43 44 45 41 37 36 37 37 37 37 39 41 43 46 45 47 51 49 50 51 49 46 46 48 51 49 48 47 45 50 52 50 52 51 51 52 51 50 54 60 62 63 63 64 63 60 55 54 54 44 35 32 27 25
13 15 16 15 15 14 13 13 14 15 15 14 14 14 13 13 15 16 15 13 15 18 21 30 36 40 44 44 43 44 47 52 54 53 51 49 47 45 43 42 41 40 41 40 40 40 38 34 31 31 32 34 35 36 38 42 44 40 43 47 45 46 49 51 47 46 50 50 48 47 49 50 54 56 54 52 52 54 56 52 46 48 56 62 63 62 64 64 60 55 52 55 52 42 33 28 26
14 16 16 15 14 14 13 13 14 15 15 14 14 14 14 14 17 18 18 16 15 18 21 27 32 38 44 43 43 45 49 54 55 53 52 50 46 44 42 41 41 41 39 37 38 38 37 35 34 33 32 31 34 38 36 38 41 40 40 40 41 42 46 48 46 47 51 51 50 48 49 52 55 57 57 54 52 55 58 54 47 48 55 61 62 59 60 58 51 52 51 50 54 52 39 31 31
14 15 15 14 14 14 13 13 14 15 15 15 15 14 15 17 19 19 21 22 18 17 21 23 25 33 41 42 42 48 52 55 54 51 49 47 45 43 42 41 42 40 37 36 38 37 39 41 40 38 36 34 37 39 37 38 39 41 41 38 37 38 41 44 45 47 49 51 52 50 48 52 56 57 56 55 53 54 57 57 53 54 58 59 58 59 63 60 51 53 55 48 50 55 48 40 36
14 14 13 14 14 13 13 13 14 15 15 14 15 14 16 18 20 21 23 25 19 22 26 23 24 32 40 42 45 51 53 53 52 50 48 46 45 44 42 41 41 40 39 38 37 37 40 43 41 37 35 36 34 33 36 39 37 40 42 39 37 37 38 40 42 45 47 49 51 50 49 52 56 57 55 54 53 53 56 59 59 61 62 61 57 60 69 66 61 61 59 54 53 56 55 48 40
14 13 12 13 13 13 13 14 14 14 14 14 15 15 16 18 22 23 25 26 26 31 33 27 31 38 42 44 48 51 50 50 50 48 47 47 45 43 40 40 41 41 41 40 39 38 38 39 38 34 33 34 32 30 33 35 34 39 42 38 37 40 40 38 38 41 46 48 49 49 50 52 54 55 54 54 55 55 57 60 63 64 65 65 58 61 69 67 66 68 65 59 54 56 58 52 43
12 12 12 12 13 13 13 13 13 14 14 15 15 16 18 20 24 26 27 30 30 32 32 32 39 43 44 45 46 47 48 49 49 48 48 47 45 42 41 42 42 42 41 41 40 38 36 37 36 35 35 35 32 33 34 32 34 39 40 36 37 41 43 38 36 39 44 47 47 47 48 52 54 55 54 54 55 53 55 58 61 62 63 65 59 59 67 65 63 67 67 59 46 48 54 51 44
11 12 12 12 13 12 13 13 14 14 15 16 16 17 20 21 25 28 30 31 29 29 31 37 45 46 46 47 47 46 48 49 48 49 48 46 45 43 44 45 44 42 40 38 37 37 35 35 35 35 37 34 31 33 34 31 32 33 32 33 37 39 40 39 37 37 42 45 45 45 46 51 54 56 54 51 50 49 52 55 58 62 62 65 63 60 65 66 64 62 63 61 50 45 51 52 45
10 11 12 12 12 13 13 13 14 15 16 16 17 18 20 21 22 25 28 30 27 29 34 40 44 46 47 48 49 50 50 49 48 49 48 46 47 47 47 46 42 39 36 32 31 35 35 31 32 32 32 30 28 29 30 30 29 28 27 30 33 33 35 40 40 37 40 43 43 44 45 48 51 54 54 50 47 46 49 51 54 59 61 67 67 64 66 68 71 66 59 62 60 50 48 51 47
12 11 12 13 13 13 13 13 15 17 17 18 18 19 20 20 22 23 26 30 30 31 36 41 42 45 48 48 50 51 50 49 48 49 49 48 49 49 46 41 35 31 30 27 25 33 33 29 30 30 29 29 28 27 27 30 26 26 27 28 29 29 31 35 37 37 38 39 39 42 44 46 48 52 53 49 46 45 46 48 51 56 61 66 67 65 67 67 74 76 69 65 64 57 50 48 48
13 12 13 13 13 13 13 13 16 18 18 19 19 19 20 19 22 24 25 30 33 33 36 40 41 42 45 47 50 51 50 50 50 50 51 51 50 46 40 35 31 27 25 23 26 30 27 28 30 30 28 25 29 30 28 28 26 27 27 25 30 32 29 31 34 35 36 35 34 38 43 45 48 50 51 48 46 45 46 51 55 61 64 65 67 66 66 67 71 75 76 73 68 65 59 53 49
13 13 13 13 13 13 13 14 16 18 18 19 19 18 19 19 20 22 24 29 32 34 35 38 40 42 44 46 49 50 51 51 50 51 52 51 45 39 34 30 27 24 23 23 27 26 21 27 30 27 24 19 24 31 28 27 27 28 25 23 30 32 29 30 32 34 34 34 33 36 42 44 45 48 49 46 45 45 48 55 61 64 66 68 70 70 69 70 74 75 75 76 75 70 64 61 54
12 13 12 12 12 13 13 14 17 18 18 19 18 18 18 19 19 21 23 27 30 32 34 35 38 41 42 45 48 49 50 51 51 51 48 43 38 34 31 26 22 23 25 24 25 23 20 26 27 23 22 17 20 28 28 28 27 27 25 23 27 28 28 29 31 33 36 38 35 36 42 41 40 45 47 44 44 45 48 53 58 60 63 67 68 69 70 73 79 81 76 73 74 73 68 65 60
13 13 12 13 14 14 14 15 18 18 18 19 17 20 23 19 18 21 23 26 28 30 32 33 39 43 42 43 46 47 49 50 50 47 41 36 35 32 27 23 21 25 27 24 23 24 23 24 23 21 20 18 20 23 25 28 27 26 25 23 24 24 26 29 31 33 35 43 45 41 43 43 40 41 43 41 43 46 49 52 55 58 62 67 67 64 63 69 77 81 80 77 74 76 76 72 69
13 13 13 14 16 17 16 16 19 18 18 19 16 21 28 22 18 22 24 25 27 29 30 31 37 43 42 42 45 47 48 49 46 43 38 35 34 30 26 22 22 25 26 25 25 25 24 24 22 21 20 19 19 20 23 24 23 24 27 26 24 24 27 30 32 33 34 41 48 48 49 50 49 47 41 38 43 48 51 54 56 59 62 66 68 63 59 62 69 77 81 83 80 77 79 79 77
13 15 15 14 16 19 18 17 20 19 18 19 16 20 31 25 18 22 24 25 27 27 30 31 34 39 40 42 44 44 46 45 42 41 38 34 33 29 25 23 22 25 25 25 26 25 25 25 23 22 22 20 20 20 21 20 18 20 24 22 20 21 26 30 29 31 34 38 44 49 52 55 57 55 45 39 45 51 54 56 58 60 63 66 65 61 59 59 61 68 73 76 80 81 80 81 81
15 17 19 17 16 18 19 17 19 20 18 19 17 21 32 26 17 22 23 25 27 26 28 30 33 37 37 39 40 40 42 42 41 41 36 32 31 30 26 24 23 24 26 26 27 26 27 26 24 23 23 22 21 21 20 20 20 20 19 17 16 19 25 30 29 29 32 34 38 44 47 50 50 47 43 43 49 53 56 58 58 60 65 68 65 60 60 59 56 59 63 66 74 80 83 83 83
18 19 21 20 17 19 22 20 19 20 19 20 19 20 26 23 18 21 23 24 26 26 27 29 32 34 35 35 36 37 38 40 39 38 34 30 30 30 28 26 25 26 27 28 28 29 29 28 26 24 24 24 23 23 22 23 23 21 19 16 16 21 24 28 30 31 30 27 29 35 38 40 39 37 42 49 51 52 54 55 55 59 64 64 61 61 61 59 57 58 61 66 72 76 80 84 85
20 21 22 21 18 19 23 23 21 20 20 21 20 20 23 21 19 20 21 24 25 26 26 28 30 32 33 32 31 31 33 34 36 35 33 30 29 29 28 27 26 27 28 30 31 31 32 30 28 25 24 24 23 23 23 25 24 20 18 16 17 21 26 27 28 32 33 28 26 29 29 31 33 35 40 46 49 51 51 49 49 54 60 58 55 58 62 60 60 62 63 67 71 72 77 83 85
20 22 22 22 20 19 22 23 22 21 20 22 22 24 24 22 20 20 20 23 25 26 27 28 29 30 31 31 30 29 31 32 33 35 34 30 28 28 27 27 27 28 30 31 32 33 34 32 30 27 24 24 23 23 24 27 30 25 21 21 22 25 28 28 28 32 35 31 25 24 24 26 30 32 33 36 40 43 44 45 46 50 55 57 55 57 63 64 63 65 66 67 69 71 75 81 86
20 21 21 22 21 22 24 23 21 20 22 25 24 23 23 22 21 20 20 22 24 25 26 27 27 28 30 31 30 29 31 34 34 34 35 32 30 29 28 29 30 31 32 33 33 34 35 34 32 29 26 25 24 23 25 30 34 30 25 24 25 25 25 24 25 27 26 21 18 18 20 21 22 24 27 29 31 33 35 37 40 43 47 50 54 59 63 64 63 65 69 69 69 72 75 79 84
20 21 21 22 21 23 26 24 22 21 22 25 26 22 23 25 23 21 20 20 21 23 25 26 26 26 28 29 30 29 31 36 34 33 35 34 33 31 30 31 32 33 34 34 35 35 36 35 34 32 28 26 24 24 25 27 30 30 27 25 24 24 24 26 27 23 16 13 12 12 13 13 14 16 19 21 25 28 28 29 29 33 37 39 43 52 58 58 60 66 70 69 69 73 75 76 79
21 21 23 24 23 24 26 24 22 22 22 26 27 22 23 26 23 21 21 20 20 22 23 24 25 25 26 27 28 28 31 34 33 34 35 35 35 34 33 33 34 36 36 36 36 37 37 36 35 34 32 29 26 26 26 26 28 28 24 20 21 22 20 21 23 18 13 13 12 11 11 10 13 18 18 18 22 26 26 26 25 26 30 33 34 39 46 48 52 61 66 66 68 73 77 78 78
21 22 25 26 26 25 27 29 28 25 24 25 26 22 22 23 22 21 21 22 23 23 24 24 25 25 25 24 26 28 31 33 35 36 37 37 37 36 35 35 36 37 38 39 38 38 38 38 38 38 35 33 29 28 29 29 28 27 21 16 16 17 15 14 15 14 14 14 13 13 13 11 14 21 24 24 24 26 27 27 25 24 27 32 36 41 44 44 45 53 60 65 71 76 78 80 80
25 23 24 27 30 27 26 32 34 29 26 25 23 22 21 23 23 23 22 23 25 24 23 23 23 23 24 24 26 29 31 34 37 39 40 40 39 39 38 37 38 39 40 40 40 40 40 40 40 41 39 35 32 31 33 31 28 28 22 16 15 15 14 14 16 17 15 15 15 13 14 13 14 19 23 27 26 26 27 27 26 24 23 27 37 46 47 45 44 47 53 59 66 74 80 82 82
29 25 22 25 30 29 26 29 29 27 28 28 26 22 22 25 27 27 24 23 25 25 24 23 23 23 23 24 27 29 31 35 38 40 42 42 41 41 41 40 40 42 42 42 42 42 42 43 43 44 43 37 34 35 37 32 27 29 25 17 16 17 17 18 21 21 18 18 17 15 15 14 14 16 20 24 23 24 27 28 27 26 23 24 31 39 40 40 41 42 45 48 52 62 75 86 87
30 29 26 24 25 28 28 28 27 26 28 31 28 23 24 27 28 29 26 23 25 27 26 26 25 25 25 25 26 28 29 33 36 40 42 44 45 45 45 44 42 43 45 45 45 43 44 44 44 46 43 38 39 42 42 34 27 30 27 18 17 20 21 21 20 19 19 18 17 15 15 14 13 15 16 18 18 21 26 27 27 27 27 26 26 29 30 32 34 35 38 41 44 48 59 71 77
32 35 31 28 29 31 31 30 29 28 29 30 28 25 25 26 28 31 28 24 26 28 29 28 27 28 28 28 28 27 28 30 34 38 40 43 46 46 47 46 44 44 45 46 46 46 46 44 44 47 42 39 43 48 47 35 26 30 29 20 18 21 22 20 17 17 18 18 17 16 14 14 14 14 13 14 15 16 20 23 24 25 27 27 26 24 24 25 25 24 25 29 34 37 42 49 53
33 36 32 31 34 34 34 32 30 31 31 28 29 29 27 25 27 31 27 24 27 30 30 28 27 28 29 30 31 30 30 31 33 36 39 42 44 47 47 46 44 43 43 45 46 47 46 45 45 45 42 41 46 49 45 34 27 29 29 22 19 21 20 18 18 18 18 17 17 15 14 13 13 13 13 13 13 14 15 16 17 18 20 23 23 19 15 15 14 14 13 15 19 20 22 28 33
35 36 33 32 33 33 34 32 29 32 32 28 30 33 29 25 27 31 29 28 31 33 31 28 27 27 29 30 32 32 31 32 32 34 36 40 43 45 45 43 42 41 41 42 45 46 45 44 45 43 40 41 44 45 40 31 27 29 29 24 20 20 20 19 18 18 17 17 16 14 14 14 13 12 12 12 13 13 13 14 14 15 15 17 18 16 13 13 13 12 11 11 11 11 11 13 17
35 34 34 33 33 32 32 31 29 30 30 29 32 32 28 24 26 30 31 29 31 32 30 29 29 28 29 30 30 30 30 31 31 30 31 33 36 41 43 43 40 39 39 39 42 45 44 44 45 42 38 36 37 40 36 30 28 28 29 26 21 20 20 19 18 17 16 16 15 15 18 18 16 14 13 13 12 12 13 14 14 14 14 15 15 15 14 15 14 15 15 13 13 12 11 11 11
33 35 36 36 37 37 35 33 32 30 28 32 32 29 28 25 26 31 30 25 25 29 30 30 30 30 30 31 31 31 31 30 30 30 29 29 31 35 38 39 38 37 37 37 40 43 45 46 44 41 39 37 37 36 33 31 30 28 30 28 23 20 20 19 18 16 17 16 15 17 20 21 19 16 15 15 14 13 13 13 13 13 14 14 14 15 15 16 16 16 16 16 16 15 14 14 13
31 33 37 37 35 38 38 34 34 31 30 35 31 28 29 27 29 34 30 23 22 24 28 28 29 30 30 30 30 31 31 31 31 30 29 30 32 33 33 35 36 36 36 37 41 44 46 46 43 40 42 43 41 36 32 32 32 30 31 30 26 22 20 20 19 17 18 20 20 19 20 23 22 19 17 17 16 15 14 14 13 13 13 13 13 14 15 15 16 16 16 16 16 16 16 16 15
31 32 36 36 33 38 38 31 31 31 31 35 34 31 31 29 32 33 27 26 24 23 26 28 28 29 31 31 31 32 32 32 32 30 31 32 33 35 33 35 39 40 39 39 41 44 45 44 43 45 47 45 43 41 38 37 37 35 34 34 32 26 22 21 20 19 19 21 23 21 21 26 26 22 19 18 18 17 16 15 14 14 14 13 13 14 14 15 15 15 15 15 16 15 16 16 15
32 31 31 33 32 36 36 32 33 34 34 40 39 36 32 31 36 34 29 30 29 27 28 29 30 30 32 34 33 34 36 35 35 36 38 37 37 39 40 40 43 44 42 42 43 44 43 43 46 48 47 43 42 44 41 38 39 41 40 39 36 30 24 22 22 21 20 21 23 23 24 27 29 27 23 19 18 18 17 16 15 15 14 14 13 14 14 14 14 14 14 14 14 15 14 14 14
29 28 28 29 30 32 34 34 36 35 35 38 36 33 30 31 34 32 30 31 31 32 32 31 32 32 33 36 36 38 40 40 40 43 47 47 44 44 46 45 45 45 45 44 45 44 43 46 50 48 45 44 46 46 42 38 40 43 44 44 42 37 28 24 23 23 24 24 25 26 26 27 30 31 27 23 22 21 20 19 17 16 15 15 15 14 14 14 14 14 14 14 13 14 13 13 13
28 28 27 29 30 31 35 37 37 35 34 31 30 30 30 30 31 29 28 29 28 30 32 33 34 33 33 36 38 41 45 48 49 50 55 58 54 51 50 50 49 48 47 46 47 46 46 50 52 49 47 46 48 47 43 41 43 45 46 46 46 45 39 32 29 27 27 30 30 30 30 30 31 31 29 27 27 25 24 23 22 21 19 17 16 15 15 15 15 14 14 14 14 14 14 13 12
25 27 28 30 30 30 33 35 35 34 32 29 28 31 30 29 33 34 32 31 30 30 31 34 36 35 34 36 38 40 45 51 54 55 57 60 60 58 57 56 55 55 55 54 54 53 52 52 52 50 50 48 48 51 48 46 47 50 54 53 51 52 51 47 42 36 36 39 38 38 37 36 36 36 35 33 31 29 28 28 27 26 25 23 21 19 17 16 16 16 15 15 15 14 14 14 14
24 25 26 28 30 32 34 37 37 35 34 33 30 31 29 26 30 36 36 34 33 33 34 36 38 38 38 38 37 39 43 48 51 54 56 58 60 61 61 60 58 60 63 63 62 61 57 56 54 52 52 49 50 54 53 50 50 54 59 59 57 58 59 58 53 48 45 44 44 44 42 41 41 40 40 40 38 36 33 31 30 29 29 28 26 24 22 20 18 17 16 16 16 16 16 15 15
24 24 24 24 27 28 31 34 36 37 40 40 35 33 32 29 29 33 35 35 34 35 37 39 40 41 42 41 40 40 41 44 46 49 51 55 57 60 63 63 61 61 63 65 66 66 65 63 60 57 56 53 51 52 52 51 51 53 57 59 60 60 60 59 56 54 52 50 48 48 46 45 44 42 41 41 42 43 41 39 35 32 31 31 30 29 28 26 24 22 20 18 17 17 17 17 16
27 26 26 26 27 29 30 31 32 34 37 38 38 35 33 34 35 33 35 36 35 35 37 39 41 43 44 45 44 42 42 43 44 45 45 47 49 52 57 60 61 62 63 64 66 68 70 72 69 65 62 57 54 53 52 52 52 52 53 55 58 59 60 60 58 56 56 54 51 49 47 47 47 46 43 40 40 41 43 43 41 38 37 34 33 32 31 31 29 28 26 23 20 18 17 17 17
26 27 27 29 31 33 35 34 35 37 36 35 36 36 36 40 40 36 37 38 36 36 37 38 41 44 45 46 45 44 43 43 44 44 43 41 39 39 44 51 56 61 64 65 65 67 73 75 74 72 69 65 62 60 58 57 57 57 55 55 56 58 60 61 60 59 58 55 51 49 46 44 45 47 47 44 42 41 42 43 44 44 43 41 39 37 35 34 34 32 31 29 26 23 20 18 17